Location: Essen
(51.4609°N, 7.0127°E)
Time: 00:33:54
(UTC+02:00)

ISS - Visible Passes

Search period start: 25 July 2017 00:00
Search period end: 04 August 2017 00:00
Orbit: 400 x 408 km, 51.6° (Epoch: 25 July)

Date Brightness Start Highest point End Pass type
(mag) Time Alt. Az. Time Alt. Az. Time Alt. Az.
25 Jul -4.0 00:07:07 10° WSW 00:10:22 74° SSE 00:13:37 10° E visible
25 Jul -3.9 01:43:35 10° W 01:46:51 88° N 01:50:08 10° E visible
25 Jul -3.5 03:20:07 10° W 03:23:14 42° SSW 03:26:20 10° SE visible
25 Jul -1.7 04:58:23 10° SW 04:59:02 10° SW 04:59:41 10° SSW visible
25 Jul -3.8 23:14:53 10° WSW 23:18:05 56° SSE 23:21:18 10° E visible
26 Jul -3.9 00:51:15 10° W 00:54:31 85° N 00:56:43 19° E visible
26 Jul -2.3 02:27:45 10° W 02:29:15 24° W 02:29:15 24° W visible
26 Jul -3.4 22:22:45 10° SW 22:25:49 39° SSE 22:28:54 10° E visible
26 Jul -3.9 23:58:53 10° W 00:02:10 89° N 00:05:19 11° E visible
27 Jul -3.4 01:35:23 10° W 01:37:53 49° W 01:37:53 49° W visible
27 Jul -4.0 23:06:32 10° WSW 23:09:48 79° S 23:13:04 10° E visible
28 Jul -4.0 00:43:02 10° W 00:46:18 89° SSW 00:46:54 56° E visible
28 Jul -3.8 22:14:14 10° WSW 22:17:27 62° SSE 22:20:41 10° E visible
28 Jul -3.9 23:50:38 10° W 23:53:55 85° N 23:56:01 20° E visible
29 Jul -2.1 01:27:08 10° W 01:28:38 24° W 01:28:38 24° W visible
29 Jul -3.9 22:58:14 10° W 23:01:31 87° N 23:04:47 10° E visible
30 Jul -3.9 00:34:44 10° W 00:37:49 68° SW 00:37:49 68° SW visible
30 Jul -3.9 22:05:51 10° WSW 22:09:07 84° SSE 22:12:23 10° E visible
30 Jul -4.0 23:42:20 10° W 23:45:36 86° S 23:47:01 31° ESE visible
31 Jul -1.4 01:18:55 10° W 01:19:38 15° W 01:19:38 15° W visible
31 Jul -3.9 22:49:55 10° W 22:53:11 86° N 22:56:15 11° E visible
01 Aug -3.0 00:26:25 10° W 00:28:51 38° WSW 00:28:51 38° WSW visible
01 Aug -3.8 21:57:29 10° W 22:00:45 85° N 22:04:01 10° E visible
01 Aug -3.9 23:33:59 10° W 23:37:13 64° SSW 23:38:06 42° SE visible
02 Aug -3.9 22:41:32 10° W 22:44:48 81° SSW 22:47:21 15° ESE visible
03 Aug -2.2 00:18:09 10° W 00:19:58 23° WSW 00:19:58 23° WSW visible
03 Aug -3.3 23:25:35 10° W 23:28:42 41° SSW 23:29:15 37° S visible
